This demonstration page uses our WeatherBlox Daily Observations layout. Learn more.

39.51506, -84.39828

Hourly Observations for November 21, 2019

Temp ( °F °C ) Dew Point ( °F °C ) Humidity (%) Winds ( mph kmh ) Pressure ( in mb ) Visibility ( mi km ) Precip ( " mm )
12:15 am 00:15 Clear 42 5.5 39 3.9 90 90 SSE 5 7 30.27 1025 10 16.09344 N/A
12:35 am 00:35 Clear 42 5.5 39 3.9 90 90 S 6 9 30.27 1025 10 16.09344 N/A
12:55 am 00:55 Clear 41 4.9 39 3.7 92 92 SSE 3 6 30.24 1024 10 16.09344 N/A
1:15 am 01:15 Clear 42 5.8 39 3.9 88 88 S 5 7 30.21 1023 10 16.09344 N/A
1:35 am 01:35 Clear 40 4.5 38 3.4 93 93 SE 3 6 30.24 1024 7 11.265408 N/A
1:55 am 01:55 Clear 42 5.5 39 4 90 90 ESE 6 9 30.21 1023 7 11.265408 N/A
2:15 am 02:15 Clear with Mist and Fog 42 5.5 39 4.1 91 91 SSE 6 9 30.21 1023 7 11.265408 N/A
2:35 am 02:35 Clear 42 5.4 39 4 91 91 S 6 9 30.24 1024 7 11.265408 N/A
2:55 am 02:55 Clear 42 5.5 39 4 90 90 S 7 11 30.21 1023 7 11.265408 N/A
3:15 am 03:15 Clear with Mist and Fog 41 5.1 39 3.8 91 91 SSW 5 7 30.24 1024 7 11.265408 N/A
3:35 am 03:35 Clear with Mist and Fog 41 5.1 39 3.8 91 91 SSW 3 6 30.24 1024 7 11.265408 N/A
3:55 am 03:55 Clear with Mist and Fog 40 4.6 38 3.6 93 93 Calm 30.24 1024 7 11.265408 N/A
4:15 am 04:15 Clear with Mist and Fog 41 4.9 39 3.7 92 92 SSE 6 9 30.21 1023 7 11.265408 N/A
4:35 am 04:35 Clear 41 4.8 38 3.5 91 91 Calm 30.21 1023 7 11.265408 N/A
4:55 am 04:55 Clear with Mist and Fog 41 5.2 39 3.7 90 90 S 3 6 30.18 1022 7 11.265408 N/A
5:15 am 05:15 Clear with Mist and Fog 42 5.3 39 3.8 90 90 S 8 13 30.18 1022 7 11.265408 N/A
5:35 am 05:35 Clear 42 5.5 39 3.9 90 90 S 7 11 30.15 1021 7 11.265408 N/A
5:55 am 05:55 Clear 42 5.6 39 3.9 89 89 S 5 7 30.15 1021 10 16.09344 N/A
6:15 am 06:15 Clear 42 5.6 39 3.9 89 89 S 5 7 30.15 1021 10 16.09344 N/A
6:35 am 06:35 Clear 42 5.3 39 3.8 90 90 S 3 6 30.15 1021 7 11.265408 N/A
6:55 am 06:55 Clear 42 5.4 39 3.8 90 90 S 5 7 30.15 1021 7 11.265408 N/A
7:15 am 07:15 Partly Cloudy 42 5.3 39 3.8 90 90 S 5 7 30.15 1021 7 11.265408 N/A
7:35 am 07:35 Sunny 43 5.9 39 4 88 88 S 8 13 30.12 1020 10 16.09344 N/A
7:55 am 07:55 Sunny 44 6.4 39 3.9 84 84 S 6 9 30.09 1019 10 16.09344 N/A
8:15 am 08:15 Mostly Cloudy 44 6.6 39 4 84 84 S 6 9 30.12 1020 10 16.09344 N/A
8:35 am 08:35 Cloudy 44 6.8 39 4.1 83 83 S 8 13 30.12 1020 10 16.09344 N/A
8:55 am 08:55 Cloudy 44 6.8 40 4.4 85 85 SSE 5 7 30.12 1020 10 16.09344 N/A
9:15 am 09:15 Cloudy 45 7.4 40 4.6 83 83 S 6 9 30.12 1020 10 16.09344 N/A
9:35 am 09:35 Mostly Cloudy 46 7.8 40 4.4 79 79 S 5 7 30.09 1019 10 16.09344 N/A
9:55 am 09:55 Cloudy 47 8.4 40 4.3 76 76 S 8 13 30.09 1019 10 16.09344 N/A
10:15 am 10:15 Mostly Cloudy 48 8.9 40 4.4 74 74 S 14 22 30.09 1019 10 16.09344 N/A
10:35 am 10:35 Mostly Cloudy 48 9 40 4.2 72 72 S 10 17 30.09 1019 10 16.09344 N/A
10:55 am 10:55 Mostly Cloudy 49 9.2 40 4.3 72 72 S 7 11 30.06 1018 10 16.09344 N/A
11:15 am 11:15 Mostly Cloudy 49 9.4 40 4.2 70 70 S 9 15 30.06 1018 10 16.09344 N/A
11:35 am 11:35 Mostly Cloudy 50 9.9 40 4.3 68 68 S 12 19 30.03 1017 10 16.09344 N/A
11:55 am 11:55 Mostly Cloudy 51 10.3 40 4.3 67 67 S 10 17 30.03 1017 10 16.09344 N/A
12:15 pm 12:15 Mostly Cloudy 51 10.8 40 4.4 65 65 S 10 17 30 1016 10 16.09344 N/A
12:35 pm 12:35 Cloudy with Light Rain 52 11.2 40 4.7 65 65 SSW 13 20 30 1016 10 16.09344 N/A
12:55 pm 12:55 Cloudy 53 11.4 41 5.1 65 65 S 13 20 30 1016 10 16.09344 N/A
1:15 pm 13:15 Cloudy 53 11.9 42 5.4 65 65 S 13 20 30 1016 10 16.09344 N/A
1:35 pm 13:35 Mostly Cloudy 55 12.8 42 5.5 61 61 SSW 13 20 29.97 1015 10 16.09344 N/A
1:55 pm 13:55 Cloudy 55 12.9 42 5.3 60 60 SSW 12 19 29.97 1015 10 16.09344 N/A
2:15 pm 14:15 Cloudy 55 12.9 42 5.5 61 61 SSW 12 19 29.97 1015 10 16.09344 N/A
2:35 pm 14:35 Cloudy with Rain 52 11.1 45 7.3 78 78 SW 16 26 29.97 1015 3 4.828032 N/A
2:55 pm 14:55 Cloudy with Light Rain 51 10.3 47 8.3 88 88 S 12 19 29.94 1014 4 6.437376 N/A
3:15 pm 15:15 Cloudy 51 10.4 47 8.3 87 87 S 13 20 29.94 1014 10 16.09344 N/A
3:35 pm 15:35 Cloudy 51 10.8 47 8.6 86 86 S 13 20 29.94 1014 10 16.09344 N/A
3:55 pm 15:55 Cloudy 52 10.9 47 8.4 85 85 SSW 13 20 29.94 1014 10 16.09344 N/A
4:15 pm 16:15 Cloudy 52 11.1 47 8.3 83 83 SSW 15 24 29.94 1014 10 16.09344 N/A
4:35 pm 16:35 Cloudy 52 11.3 46 7.9 80 80 SSW 20 31 29.94 1014 10 16.09344 N/A
4:55 pm 16:55 Cloudy 53 11.8 46 7.8 77 77 SSW 17 28 29.94 1014 10 16.09344 N/A
5:15 pm 17:15 Cloudy 53 11.8 46 7.9 77 77 SSW 17 28 29.94 1014 10 16.09344 N/A
5:35 pm 17:35 Cloudy 54 12 46 7.9 76 76 SSW 18 30 29.94 1014 10 16.09344 N/A
5:55 pm 17:55 Cloudy 53 11.9 46 8 77 77 SSW 20 31 29.94 1014 10 16.09344 N/A
6:15 pm 18:15 Cloudy 53 11.9 47 8.2 78 78 SW 20 31 29.94 1014 10 16.09344 N/A
6:35 pm 18:35 Cloudy 53 11.8 47 8.3 79 79 SSW 20 31 29.94 1014 10 16.09344 N/A
6:55 pm 18:55 Cloudy 53 11.9 47 8.3 79 79 SW 16 26 29.97 1015 10 16.09344 N/A
7:15 pm 19:15 Cloudy 53 11.9 47 8.4 79 79 SW 15 24 29.97 1015 10 16.09344 N/A
7:35 pm 19:35 Cloudy 54 12 47 8.5 79 79 SW 16 26 29.97 1015 10 16.09344 N/A
7:55 pm 19:55 Cloudy with Light Rain 53 11.7 48 8.8 83 83 SSW 14 22 29.97 1015 10 16.09344 N/A
8:15 pm 20:15 Cloudy 54 12 48 9 82 82 SSW 16 26 29.97 1015 10 16.09344 N/A
8:35 pm 20:35 Cloudy 54 12 48 9.1 83 83 SSW 14 22 29.97 1015 10 16.09344 N/A
8:55 pm 20:55 Cloudy 54 12.1 49 9.3 83 83 SSW 16 26 29.97 1015 10 16.09344 N/A
9:15 pm 21:15 Cloudy 53 11.9 49 9.6 86 86 SSW 15 24 29.97 1015 10 16.09344 N/A
9:35 pm 21:35 Cloudy 53 11.8 49 9.7 87 87 SW 14 22 29.97 1015 10 16.09344 N/A
9:55 pm 21:55 Cloudy 53 11.6 50 9.8 89 89 SSW 13 20 29.97 1015 10 16.09344 N/A
10:15 pm 22:15 Cloudy 53 11.7 49 9.7 88 88 SSW 13 20 29.97 1015 10 16.09344 N/A
10:35 pm 22:35 Cloudy 53 11.7 49 9.7 88 88 SSW 12 19 29.97 1015 10 16.09344 N/A
10:55 pm 22:55 Cloudy 53 11.6 49 9.7 88 88 SSW 14 22 29.97 1015 10 16.09344 N/A
11:15 pm 23:15 Cloudy 53 11.6 50 9.8 89 89 SSW 15 24 29.97 1015 10 16.09344 N/A
11:35 pm 23:35 Cloudy 53 11.6 50 9.9 89 89 SW 10 17 29.94 1014 10 16.09344 N/A
11:55 pm 23:55 Cloudy 53 11.6 50 10 90 90 SSW 12 19 29.94 1014 10 16.09344 N/A

Powered by AerisWeather